COSMOS 2548 (47230 NORAD) Tracking and Keplerian Element Data
This shows tracking and keplerian element data for the satellite.
Feedback or suggestion? Click here.
Element | Value |
Catalog | 47230 |
Name | COSMOS 2548 |
Epoch Orbit | 606 |
Epoch Day | 20.89391743 |
Epoch Year | 2021 |
RAAN | 88.9038 |
Inclination | 82.4991 |
Eccentricity | 0.0015855 |
Argument of Perigee | 175.0461 |
Mean Anonmoly | 185.0778 |
Mean Motion | 12.42950592 |
Decay Rate | 5E-08 |
L1 | 1 47230U 20091D 21020.89391743 .00000005 00000-0 -37125-4 0 9995 |
L2 | 2 47230 82.4991 88.9038 0015855 175.0461 185.0778 12.42950592 6062 |
Live tracking and technical data element details for COSMOS 2548 (NORAD 47230). COSMOS 2548 can be tracked NOW for your location showing map with azimuth and elevation plus other details from your city location.
Track the satellite on the map from your city or location and see movement details for azimuth, elevation, latitude, longitude, range, height, and movement on the map or in text.
IsCatalogInMostPopularTable: catalog: 47230, numindb: 23
Update: records affected: 1
GetName: 47230 COSMOS 2548
Hit Count: updated at: Fri, 22 Jan 2021 16:35:48 GMT